This is the latest recevied weather packets stored in our database for station/object EA1HTW-13. If no packets are shown the sender has not sent any weather packets the latest 10 day(s).
| Time | Temp. | Humidity | Pressure | Rain* | Wind** | Luminosity | Snow |
|---|---|---|---|---|---|---|---|
| 1777397182 | 20° C | 66% | 1003.2 hPa | 1.52 mm | - | - | - |
| 1777396643 | 20° C | 68% | 1003.2 hPa | 1.52 mm | - | - | - |
| 1777396103 | 20° C | 66% | 1003.2 hPa | 1.52 mm | - | - | - |
| 1777395562 | 20° C | 63% | 1002.9 hPa | 1.27 mm | - | - | - |
| 1777395022 | 20.56° C | 61% | 1002.6 hPa | 1.27 mm | - | - | - |
| 1777394483 | 21.67° C | 57% | 1002.5 hPa | 0.25 mm | - | - | - |
| 1777393943 | 22.22° C | 52% | 1002.6 hPa | 0 mm | - | - | - |
| 1777393402 | 23.33° C | 52% | 1002.4 hPa | 0 mm | - | - | - |
| 1777392864 | 23.89° C | 50% | 1001.7 hPa | 0 mm | - | - | - |
| 1777392322 | 23.89° C | 50% | 1001.3 hPa | 0 mm | - | - | - |
| 1777391783 | 25.56° C | 47% | 1001 hPa | 0 mm | - | - | - |
| 1777391242 | 28.33° C | 41% | 1001 hPa | 0 mm | - | - | - |
| 1777390702 | 27.22° C | 44% | 1000.7 hPa | 0 mm | - | - | - |
| 1777390163 | 28.33° C | 39% | 1001.1 hPa | 0 mm | - | - | - |
| 1777389622 | 28.89° C | 39% | 1000.8 hPa | 0 mm | - | - | - |
| 1777389083 | 31.11° C | 35% | 1000.8 hPa | 0 mm | - | - | - |
| 1777388543 | 31.67° C | 35% | 1000.7 hPa | 0 mm | - | - | - |
| 1777388003 | 30.56° C | 36% | 1000.7 hPa | 0 mm | - | - | - |
| 1777387464 | 30.56° C | 36% | 1001 hPa | 0 mm | - | - | - |
| 1777386922 | 30° C | 36% | 1001.1 hPa | 0 mm | - | - | - |
| 1777386383 | 30.56° C | 36% | 1001.2 hPa | 0 mm | - | - | - |
| 1777385842 | 30.56° C | 36% | 1001.2 hPa | 0 mm | - | - | - |
| 1777385303 | 31.11° C | 35% | 1001.2 hPa | 0 mm | - | - | - |
| 1777384762 | 31.11° C | 36% | 1001 hPa | 0 mm | - | - | - |
| 1777384224 | 31.11° C | 34% | 1001 hPa | 0 mm | - | - | - |
* Rain latest hour (hover to see other rain measurements)
** Current wind speed in m/s (hover to see current wind gust speed)